Location: *
(38.3914°N, 75.0697°W)
Time: 09:24:29
(UTC+00:00)

Cosmos 1743 Rocket - Pass Details

Date: 17 February 2020
Orbit: 604 x 633 km, 82.6° (Epoch: 27 March)

Event Time Altitude Azimuth Distance (km) Brightness Sun altitude
Rises 10:00:15 0° 355° (N) 2,867 7.0 -21.9°
Reaches altitude 10° 10:02:30 10° 359° (N) 1,959 6.1 -21.5°
Maximum altitude 10:06:48 67° 81° (E) 660 3.8 -20.7°
Drops below altitude 10° 10:11:05 10° 165° (SSE) 1,948 6.3 -19.8°
Sets 10:13:18 0° 168° (SSE) 2,849 7.1 -19.4°
